This is the latest recevied weather packets stored in our database for station/object BG5HLN-13. If no packets are shown the sender has not sent any weather packets the latest 10 day(s).
| Time | Temp. | Humidity | Pressure | Rain* | Wind** | Luminosity | Snow |
|---|---|---|---|---|---|---|---|
| 1788575009 | 32.22° C | 80% | 1009.2 hPa | 0 mm | - | - | - |
| 1788574409 | 32.22° C | 80% | 1009.4 hPa | 0.25 mm | - | - | - |
| 1788573807 | 31.67° C | 81% | 1009.4 hPa | 0.25 mm | - | - | - |
| 1788573208 | 31.67° C | 81% | 1009.4 hPa | 0.25 mm | - | - | - |
| 1788572608 | 31.67° C | 81% | 1009.4 hPa | 0.25 mm | - | - | - |
| 1788572008 | 31.11° C | 82% | 1009.5 hPa | 0.25 mm | - | - | - |
| 1788571408 | 31.11° C | 83% | 1009.5 hPa | 0.25 mm | - | - | - |
| 1788570808 | 30.56° C | 83% | 1009.5 hPa | 0 mm | - | - | - |
| 1788570208 | 30° C | 84% | 1009.5 hPa | 0 mm | - | - | - |
| 1788569608 | 30° C | 84% | 1009.5 hPa | 0 mm | - | - | - |
| 1788569008 | 30° C | 84% | 1009.3 hPa | 0 mm | - | - | - |
| 1788568408 | 30.56° C | 84% | 1009.3 hPa | 0 mm | - | - | - |
| 1788567808 | 30° C | 85% | 1009.4 hPa | 0 mm | - | - | - |
| 1788567208 | 30° C | 86% | 1009.3 hPa | 0 mm | - | - | - |
| 1788566608 | 29.44° C | 88% | 1009.3 hPa | 0 mm | - | - | - |
| 1788566008 | 29.44° C | 88% | 1009.2 hPa | 0 mm | - | - | - |
| 1788565408 | 28.89° C | 88% | 1009.1 hPa | 0 mm | - | - | - |
| 1788564807 | 28.89° C | 88% | 1009 hPa | 0 mm | - | - | - |
| 1788564208 | 28.89° C | 89% | 1009 hPa | 0 mm | - | - | - |
| 1788563608 | 28.89° C | 91% | 1008.9 hPa | 0 mm | - | - | - |
| 1788563007 | 28.33° C | 91% | 1008.7 hPa | 0 mm | - | - | - |
| 1788562407 | 28.33° C | 91% | 1008.7 hPa | 0 mm | - | - | - |
| 1788561808 | 28.33° C | 91% | 1008.6 hPa | 0 mm | - | - | - |
| 1788561207 | 28.33° C | 91% | 1008.5 hPa | 0 mm | - | - | - |
| 1788560607 | 28.33° C | 91% | 1008.4 hPa | 0 mm | - | - | - |
* Rain latest hour (hover to see other rain measurements)
** Current wind speed in m/s (hover to see current wind gust speed)